Weather in Kudahuvadhoo

Maldives     2°40′17″N   72°53′40″E
temp.,
°C
wind,
m/s
gust,
m/s
humid.,
%
clouds,
%
prec.,
mm/h
press.,
hPa
HPBL,
m
7 august, sun
sun723:00+28w6778100 1.4 1010818
02:00+28w6874100 1.8 1009882
05:00+28w7875100 2.2 1009983
08:00+28w5776100 0.2 1010864
11:00+28wnw677586 0.2 1009940
14:00+28w6673100 0.1 1008934
17:00+28w677546 0.3 1008955
20:00+28w577694 0.1 1010913
8 august, mon
mon823:00+28wnw6676100 0.3 1010919
02:00+28w5777100 0.4 1009827
05:00+27wnw5676100 1.1 1008809
08:00+28w5675100 0.1 1010848
11:00+28w5777100 0.1 1010844
14:00+28w5677100 0.0 1007782
17:00+28w6778100 0.3 1007725
20:00+28w6778100 0.4 1009755
9 august, tue
tue923:00+28w5678100 1.1 1010759
02:00+27wsw6679100 1.0 1008702
05:00+28wsw5678100 1.1 1008787
08:00+28wsw4477100 0.6 1010678
11:00+28wsw447875 1.0 1010695
14:00+28wsw4477100 0.1 1007769
17:00+28wsw5577100 0.4 1007744
20:00+28wsw4577100 0.4 1009760
10 august, wed
wed1023:00+27wsw4479100 2.0 1010491
02:00+27wsw3378100 0.4 1008572
05:00+27wsw3478100 0.4 1008635
08:00+27wsw2276100 0.0 1010665
11:00+27w2375100 0.1 1009622
14:00+28wnw2375100 0.0 1007704
17:00+28w2274100 0.0 1007721
20:00+28wsw2275100 0.1 1009440
11 august, thu
thu1123:00+28sw2277100 0.3 1010442
02:00+27ssw117846 0.6 100898
05:00+27sse217776 1.0 1009379
08:00+27sse2176100 0.0 1010502
11:00+27ese217530 0.0 1010536
14:00+28ese1174100 0.0 1008492
17:00+28ese227385 0.0 1008685
20:00+28se22755 0.0 1009607